User: anonymous   Login
Location: Unspecified
(0.0000°N, 0.0000°E)
Time: 06:35:53
(UTC+00:00)
Language:

PERSEUS M2 - Orbit

View from above orbital plane
View from above orbital plane
View from above satellite
View from above satellite

Ground track
Ground track

The orbit data is extracted from the following two-line orbital elements,

1 40037U 14033AD  18321.56906888 +.00000087 +00000-0 +16048-4 0  9998
2 40037 097.8935 232.1405 0015544 050.5758 309.6830 14.86401618238813
Epoch (UTC): 17 November 2018 13:39:27
Eccentricity: 0.0015544
inclination: 97.8935°
perigee height: 598 km
apogee height: 620 km
right ascension of ascending node: 232.1405°
argument of perigee: 50.5758°
revolutions per day: 14.86401618
mean anomaly at epoch: 309.6830°
orbit number at epoch: 23881

The dashed part of the orbit path shows where the satellite is in the earth's shadow,  

DLR